North Platte Regional Airport Lee Bird Field
KLBF : now visible

Airfield :











YOU CAN JOIN US ON...

 
LOGIN :

Register | Disclaimer

   EN    FR    IT 

 









Legend :    VFR   Marginal VFR   IFR   Intensive IFR   Very Intensive IFR
Visi :
Ceiling :
>= 8 km
>= 3000ft
5 to 8 km
1000 to 3000 ft
1500m to 5 km
500 to 1000 ft
800 to 1500m
200 to 500 ft
< 800m
< 200 ft
Symbols :   Thunderstorms  Fog  Heavy snow  Heavy precipitations  Wind > 20 kt






- Airport Elevation : 2777 ft
- IATA code : LBF


KLBF - North Platte Regional Lee Bird Field

CURRENT METAR :
  • 180553Z AUTO 00000KT 10SM SCT085 00/M08 A2980 RMK AO2 SLP103 T00001083 10033 21006 400891050 56012

EXPIRED METARs :
  • 180453Z AUTO 00000KT 10SM OVC080 02/M08 A2981 RMK AO2 SLP109 T00171083
  • 180353Z AUTO 16004KT 10SM OVC065 03/M08 A2982 RMK AO2 SLP115 T00281083

TAF KLBF
Valid from the 18 at 06:00 until the 19 at 06:00 UTC


180533Z 1806/1906 VRB04KT P6SM OVC100
FM180900 31012KT P6SM OVC100
FM181600 33018G27KT P6SM BKN060
FM182300 33011KT P6SM SCT100
KZDV FIR / North America



MET'MAP, your aeronautical weather chart ! - Copyright ORBIFLY December 2007 - Disclaimer

ORBIFLY MET'MAP TEAM :

Programming & Development : Alexandra Zaïnal
Concept & original design : Baudouin d'Aumeries
Assistance for programming : Marc-Olivier Méhu
Technical & hardware support : Manuel Goepfert

Contact : metmap@orbifly.com




SOURCES & CREDITS :

   NOAA       Earth
Advisory